| time (UTC) | temp F | wind direction | speed MPH | gust MPH | rain 1hr in | rain 24hr in | rain mn in | humidity % | barometer mb |
| 20260506013531 | 73 | 26 | 1.0 | 2.0 | 0.00 | 0.13 | 0.13 | 50 | 1008.2 |
| 20260506013026 | 73 | 27 | 1.0 | 1.0 | 0.00 | 0.13 | 0.13 | 51 | 1008.3 |
| 20260506012522 | 73 | 151 | 3.0 | 5.0 | 0.00 | 0.13 | 0.13 | 50 | 1008.2 |
| 20260506012019 | 73 | 234 | 3.0 | 5.0 | 0.00 | 0.13 | 0.13 | 49 | 1008.0 |
| 20260506011517 | 73 | 10 | 0.0 | 1.0 | 0.00 | 0.13 | 0.13 | 49 | 1007.9 |
| 20260506011013 | 74 | 352 | 0.0 | 1.0 | 0.00 | 0.13 | 0.13 | 49 | 1007.9 |
| 20260506010508 | 74 | 355 | 1.0 | 1.0 | 0.00 | 0.13 | 0.13 | 48 | 1007.7 |
| 20260506010004 | 74 | 202 | 4.0 | 8.0 | 0.00 | 0.13 | 0.13 | 48 | 1007.7 |
| 20260506005501 | 74 | 244 | 2.0 | 3.0 | 0.00 | 0.13 | 0.13 | 47 | 1007.6 |
| 20260506004956 | 74 | 300 | 4.0 | 7.0 | 0.00 | 0.13 | 0.13 | 48 | 1007.8 |
| 20260506004454 | 73 | 287 | 1.0 | 2.0 | 0.00 | 0.13 | 0.13 | 49 | 1007.7 |
| 20260506003950 | 74 | 66 | 0.0 | 1.0 | 0.00 | 0.13 | 0.13 | 48 | 1007.5 |
| 20260506003447 | 74 | 224 | 2.0 | 5.0 | 0.00 | 0.13 | 0.13 | 47 | 1007.5 |
| 20260506002943 | 75 | 43 | 0.0 | 1.0 | 0.00 | 0.13 | 0.13 | 47 | 1007.4 |
| 20260506002439 | 75 | 216 | 3.0 | 5.0 | 0.00 | 0.13 | 0.13 | 45 | 1007.6 |
| 20260506001935 | 75 | 207 | 3.0 | 3.0 | 0.00 | 0.13 | 0.13 | 45 | 1007.3 |
| 20260506001432 | 75 | 47 | 1.0 | 2.0 | 0.00 | 0.13 | 0.13 | 45 | 1007.4 |
| 20260506000929 | 75 | 204 | 3.0 | 6.0 | 0.00 | 0.13 | 0.13 | 45 | 1007.2 |
| 20260506000427 | 75 | 60 | 1.0 | 2.0 | 0.00 | 0.13 | 0.13 | 45 | 1007.3 |
| 20260505235923 | 76 | 203 | 4.0 | 6.0 | 0.00 | 0.13 | 0.13 | 44 | 1007.1 |
| 20260505235422 | 76 | 274 | 3.0 | 3.0 | 0.00 | 0.13 | 0.13 | 44 | 1007.0 |
| 20260505234918 | 76 | 74 | 2.0 | 2.0 | 0.00 | 0.13 | 0.13 | 43 | 1007.1 |
| 20260505234416 | 76 | 201 | 3.0 | 3.0 | 0.00 | 0.13 | 0.13 | 43 | 1007.1 |
| 20260505233912 | 76 | 261 | 3.0 | 3.0 | 0.00 | 0.13 | 0.13 | 44 | 1007.0 |
| 20260505233410 | 77 | 47 | 0.0 | 0.0 | 0.00 | 0.13 | 0.13 | 45 | 1007.1 |
| 20260505232907 | 77 | 45 | 0.0 | 0.0 | 0.00 | 0.13 | 0.13 | 43 | 1007.1 |
| 20260505232405 | 77 | 74 | 1.0 | 1.0 | 0.00 | 0.13 | 0.13 | 44 | 1006.9 |
| 20260505231902 | 77 | 352 | 2.0 | 2.0 | 0.00 | 0.13 | 0.13 | 43 | 1007.0 |
| 20260505231359 | 78 | 44 | 1.0 | 1.0 | 0.00 | 0.13 | 0.13 | 43 | 1006.9 |
| 20260505230857 | 78 | 195 | 1.0 | 2.0 | 0.00 | 0.13 | 0.13 | 43 | 1006.9 |
| 20260505230354 | 78 | 38 | 1.0 | 1.0 | 0.00 | 0.13 | 0.13 | 44 | 1006.9 |
| 20260505225851 | 78 | 197 | 4.0 | 6.0 | 0.00 | 0.13 | 0.13 | 43 | 1006.8 |
| 20260505225348 | 78 | 312 | 2.0 | 3.0 | 0.00 | 0.13 | 0.13 | 43 | 1006.8 |
| 20260505224843 | 79 | 233 | 3.0 | 3.0 | 0.00 | 0.13 | 0.13 | 42 | 1006.8 |
| 20260505224341 | 78 | 163 | 3.0 | 5.0 | 0.00 | 0.13 | 0.13 | 43 | 1006.6 |
| 20260505223838 | 79 | 348 | 1.0 | 1.0 | 0.00 | 0.13 | 0.13 | 44 | 1006.3 |
| 20260505223335 | 79 | 300 | 6.0 | 7.0 | 0.00 | 0.13 | 0.13 | 42 | 1006.6 |
| 20260505222831 | 79 | 99 | 1.0 | 1.0 | 0.00 | 0.13 | 0.13 | 42 | 1006.5 |
| 20260505222327 | 79 | 4 | 2.0 | 2.0 | 0.00 | 0.13 | 0.13 | 42 | 1006.6 |
| 20260505221824 | 79 | 45 | 1.0 | 1.0 | 0.00 | 0.13 | 0.13 | 43 | 1006.4 |
| 20260505221321 | 79 | 247 | 5.0 | 7.0 | 0.00 | 0.13 | 0.13 | 41 | 1006.3 |
| 20260505220818 | 79 | 283 | 5.0 | 8.0 | 0.00 | 0.13 | 0.13 | 42 | 1006.5 |
| 20260505220315 | 80 | 280 | 5.0 | 6.0 | 0.00 | 0.13 | 0.13 | 41 | 1006.4 |
| 20260505215813 | 79 | 243 | 2.0 | 3.0 | 0.00 | 0.13 | 0.13 | 41 | 1006.5 |
| 20260505215311 | 79 | 269 | 3.0 | 3.0 | 0.00 | 0.13 | 0.13 | 41 | 1006.5 |
| 20260505214808 | 79 | 100 | 3.0 | 6.0 | 0.00 | 0.13 | 0.13 | 41 | 1006.2 |
| 20260505214306 | 80 | 275 | 1.0 | 2.0 | 0.00 | 0.13 | 0.13 | 41 | 1006.3 |
| 20260505213802 | 80 | 345 | 1.0 | 2.0 | 0.00 | 0.13 | 0.13 | 41 | 1006.4 |
| 20260505213301 | 80 | 49 | 5.0 | 7.0 | 0.00 | 0.13 | 0.13 | 41 | 1006.5 |
| 20260505212755 | 80 | 221 | 1.0 | 1.0 | 0.00 | 0.13 | 0.13 | 40 | 1006.5 |
| 20260505212254 | 81 | 270 | 3.0 | 3.0 | 0.00 | 0.13 | 0.13 | 39 | 1006.5 |
| 20260505211750 | 82 | 259 | 3.0 | 5.0 | 0.00 | 0.13 | 0.13 | 39 | 1006.3 |
| 20260505211248 | 82 | 272 | 5.0 | 6.0 | 0.00 | 0.13 | 0.13 | 39 | 1006.1 |
| 20260505210743 | 82 | 191 | 1.0 | 2.0 | 0.00 | 0.13 | 0.13 | 39 | 1006.4 |
| 20260505210241 | 82 | 41 | 3.0 | 5.0 | 0.00 | 0.13 | 0.13 | 40 | 1006.2 |
| 20260505205738 | 82 | 210 | 5.0 | 6.0 | 0.00 | 0.13 | 0.13 | 38 | 1006.2 |
| 20260505205236 | 81 | 259 | 9.0 | 13.0 | 0.00 | 0.13 | 0.13 | 39 | 1006.3 |
| 20260505204732 | 81 | 359 | 6.0 | 8.0 | 0.00 | 0.13 | 0.13 | 40 | 1006.2 |
| 20260505204230 | 81 | 282 | 5.0 | 6.0 | 0.00 | 0.13 | 0.13 | 40 | 1006.2 |
| 20260505203727 | 82 | 178 | 3.0 | 7.0 | 0.00 | 0.13 | 0.13 | 39 | 1006.2 |
| 20260505203224 | 81 | 242 | 4.0 | 5.0 | 0.00 | 0.13 | 0.13 | 40 | 1006.4 |
| 20260505202720 | 82 | 39 | 2.0 | 2.0 | 0.00 | 0.13 | 0.13 | 40 | 1006.2 |
| 20260505202216 | 83 | 33 | 2.0 | 2.0 | 0.00 | 0.13 | 0.13 | 40 | 1006.0 |
| 20260505201713 | 85 | 57 | 3.0 | 3.0 | 0.00 | 0.13 | 0.13 | 38 | 1006.3 |
| 20260505201211 | 85 | 305 | 2.0 | 3.0 | 0.00 | 0.13 | 0.13 | 36 | 1006.2 |
| 20260505200708 | 85 | 266 | 3.0 | 3.0 | 0.00 | 0.13 | 0.13 | 37 | 1006.1 |
| 20260505200205 | 82 | 263 | 4.0 | 6.0 | 0.00 | 0.13 | 0.13 | 36 | 1006.1 |
| 20260505195701 | 82 | 7 | 6.0 | 9.0 | 0.00 | 0.13 | 0.13 | 36 | 1006.1 |
| 20260505195158 | 81 | 145 | 10.0 | 13.0 | 0.00 | 0.13 | 0.13 | 36 | 1006.4 |
| 20260505194655 | 82 | 298 | 9.0 | 13.0 | 0.00 | 0.13 | 0.13 | 35 | 1006.4 |
| 20260505194151 | 81 | 276 | 7.0 | 11.0 | 0.00 | 0.13 | 0.13 | 35 | 1006.2 |
| 20260505193648 | 82 | 292 | 9.0 | 13.0 | 0.00 | 0.13 | 0.13 | 35 | 1006.4 |
| 20260505193145 | 82 | 282 | 7.0 | 10.0 | 0.00 | 0.13 | 0.13 | 34 | 1006.6 |
| 20260505192644 | 80 | 281 | 9.0 | 13.0 | 0.00 | 0.13 | 0.13 | 37 | 1006.5 |
| 20260505192141 | 82 | 201 | 9.0 | 13.0 | 0.00 | 0.13 | 0.13 | 36 | 1006.7 |
| 20260505191639 | 83 | 12 | 6.0 | 8.0 | 0.00 | 0.13 | 0.13 | 35 | 1006.7 |
| 20260505191137 | 82 | 319 | 3.0 | 3.0 | 0.00 | 0.13 | 0.13 | 37 | 1006.7 |
| 20260505190633 | 82 | 236 | 8.0 | 13.0 | 0.00 | 0.13 | 0.13 | 36 | 1007.1 |
| 20260505190132 | 82 | 270 | 3.0 | 5.0 | 0.00 | 0.13 | 0.13 | 37 | 1006.8 |
| 20260505185630 | 82 | 254 | 7.0 | 10.0 | 0.00 | 0.13 | 0.13 | 36 | 1006.9 |
| 20260505185126 | 82 | 325 | 3.0 | 5.0 | 0.00 | 0.13 | 0.13 | 37 | 1007.4 |
| 20260505184623 | 81 | 11 | 3.0 | 5.0 | 0.00 | 0.13 | 0.13 | 36 | 1007.4 |
| 20260505184120 | 81 | 261 | 5.0 | 8.0 | 0.00 | 0.13 | 0.13 | 36 | 1007.1 |
| 20260505183616 | 81 | 289 | 9.0 | 13.0 | 0.00 | 0.13 | 0.13 | 36 | 1007.2 |
| 20260505183114 | 80 | 254 | 9.0 | 11.0 | 0.00 | 0.13 | 0.13 | 37 | 1007.2 |
| 20260505182610 | 81 | 241 | 9.0 | 14.0 | 0.00 | 0.13 | 0.13 | 36 | 1007.5 |
| 20260505182107 | 81 | 267 | 9.0 | 13.0 | 0.00 | 0.13 | 0.13 | 36 | 1007.4 |
| 20260505181604 | 81 | 235 | 11.0 | 17.0 | 0.00 | 0.13 | 0.13 | 36 | 1007.5 |
| 20260505181101 | 81 | 286 | 9.0 | 13.0 | 0.00 | 0.13 | 0.13 | 38 | 1007.5 |
| 20260505180556 | 81 | 276 | 7.0 | 8.0 | 0.00 | 0.13 | 0.13 | 38 | 1007.6 |
| 20260505180055 | 81 | 230 | 10.0 | 14.0 | 0.00 | 0.13 | 0.13 | 38 | 1007.5 |
| 20260505175550 | 81 | 268 | 6.0 | 9.0 | 0.00 | 0.13 | 0.13 | 37 | 1007.9 |
| 20260505175047 | 82 | 280 | 6.0 | 8.0 | 0.00 | 0.13 | 0.13 | 39 | 1007.8 |
| 20260505174544 | 81 | 289 | 5.0 | 8.0 | 0.00 | 0.13 | 0.13 | 41 | 1007.8 |
| 20260505174039 | 81 | 19 | 5.0 | 9.0 | 0.00 | 0.13 | 0.13 | 43 | 1007.8 |
| 20260505173537 | 80 | 150 | 3.0 | 6.0 | 0.00 | 0.13 | 0.13 | 42 | 1007.8 |
| 20260505173033 | 80 | 264 | 5.0 | 7.0 | 0.00 | 0.13 | 0.13 | 44 | 1008.0 |
| 20260505172531 | 79 | 246 | 6.0 | 7.0 | 0.00 | 0.13 | 0.13 | 44 | 1007.8 |
| 20260505172027 | 80 | 355 | 7.0 | 10.0 | 0.00 | 0.13 | 0.13 | 43 | 1007.9 |
| 20260505171522 | 81 | 256 | 9.0 | 11.0 | 0.00 | 0.13 | 0.13 | 43 | 1007.9 |
| 20260505171020 | 80 | 343 | 7.0 | 9.0 | 0.00 | 0.13 | 0.13 | 44 | 1008.2 |
| 20260505170516 | 81 | 254 | 2.0 | 2.0 | 0.00 | 0.13 | 0.13 | 46 | 1008.0 |
| 20260505170013 | 81 | 297 | 3.0 | 5.0 | 0.00 | 0.13 | 0.13 | 45 | 1008.0 |
| 20260505165508 | 80 | 346 | 4.0 | 5.0 | 0.00 | 0.13 | 0.13 | 46 | 1008.0 |
| 20260505165004 | 80 | 313 | 2.0 | 2.0 | 0.00 | 0.13 | 0.13 | 47 | 1008.0 |
| 20260505164500 | 81 | 267 | 3.0 | 7.0 | 0.00 | 0.13 | 0.13 | 47 | 1008.2 |
| 20260505163958 | 80 | 111 | 1.0 | 2.0 | 0.00 | 0.13 | 0.13 | 49 | 1008.5 |
| 20260505163456 | 80 | 312 | 2.0 | 3.0 | 0.00 | 0.13 | 0.13 | 50 | 1008.6 |
| 20260505162956 | 79 | 320 | 1.0 | 2.0 | 0.00 | 0.13 | 0.13 | 49 | 1008.6 |
| 20260505162451 | 80 | 43 | 2.0 | 3.0 | 0.00 | 0.13 | 0.13 | 47 | 1008.6 |
| 20260505161948 | 79 | 349 | 3.0 | 3.0 | 0.00 | 0.13 | 0.13 | 50 | 1008.7 |
| 20260505161444 | 79 | 246 | 6.0 | 9.0 | 0.00 | 0.13 | 0.13 | 49 | 1008.5 |
| 20260505160942 | 78 | 265 | 5.0 | 7.0 | 0.00 | 0.13 | 0.13 | 48 | 1008.6 |
| 20260505160440 | 78 | 208 | 4.0 | 5.0 | 0.00 | 0.13 | 0.13 | 49 | 1008.8 |
| 20260505152910 | 75 | 25 | 1.0 | 2.0 | 0.00 | 0.13 | 0.13 | 53 | 1009.0 |
| 20260505152407 | 75 | 82 | 2.0 | 2.0 | 0.00 | 0.13 | 0.13 | 53 | 1008.9 |
| 20260505151902 | 75 | 317 | 1.0 | 1.0 | 0.00 | 0.13 | 0.13 | 55 | 1009.1 |
| 20260505151358 | 75 | 22 | 3.0 | 5.0 | 0.00 | 0.13 | 0.13 | 53 | 1009.0 |
| 20260505150855 | 75 | 290 | 3.0 | 3.0 | 0.00 | 0.13 | 0.13 | 53 | 1009.4 |
| 20260505150352 | 74 | 80 | 2.0 | 5.0 | 0.00 | 0.13 | 0.13 | 54 | 1009.3 |
| 20260505140317 | 70 | 189 | 3.0 | 5.0 | 0.00 | 0.13 | 0.13 | 62 | 1009.7 |
| 20260505130240 | 64 | 147 | 1.0 | 1.0 | 0.00 | 0.13 | 0.13 | 73 | 1010.4 |
| 20260505124731 | 63 | 127 | 2.0 | 3.0 | 0.00 | 0.13 | 0.13 | 74 | 1010.1 |
| 20260505124228 | 62 | 61 | 0.0 | 0.0 | 0.00 | 0.13 | 0.13 | 75 | 1010.1 |
| 20260505123723 | 63 | 47 | 1.0 | 1.0 | 0.00 | 0.13 | 0.13 | 74 | 1010.0 |
| 20260505123220 | 62 | 54 | 1.0 | 1.0 | 0.00 | 0.13 | 0.13 | 76 | 1010.1 |
| 20260505122716 | 61 | 59 | 0.0 | 0.0 | 0.00 | 0.13 | 0.13 | 76 | 1009.9 |
| 20260505122213 | 62 | 41 | 1.0 | 1.0 | 0.00 | 0.13 | 0.13 | 77 | 1010.1 |
| 20260505121705 | 61 | 226 | 1.0 | 3.0 | 0.00 | 0.13 | 0.13 | 78 | 1009.9 |
| 20260505121201 | 60 | 45 | 1.0 | 1.0 | 0.00 | 0.13 | 0.13 | 78 | 1010.1 |
| 20260505120657 | 59 | 40 | 1.0 | 2.0 | 0.00 | 0.13 | 0.13 | 81 | 1009.9 |
| 20260505120153 | 58 | 227 | 3.0 | 3.0 | 0.00 | 0.13 | 0.13 | 84 | 1009.8 |
| 20260505115647 | 57 | 166 | 2.0 | 2.0 | 0.00 | 0.13 | 0.13 | 89 | 1010.0 |
| 20260505115145 | 56 | 39 | 1.0 | 2.0 | 0.00 | 0.13 | 0.13 | 92 | 1010.0 |
| 20260505114642 | 55 | 56 | 0.0 | 0.0 | 0.00 | 0.13 | 0.13 | 94 | 1010.1 |
| 20260505114138 | 54 | 32 | 1.0 | 1.0 | 0.00 | 0.13 | 0.13 | 95 | 1009.7 |
| 20260505113635 | 54 | 33 | 1.0 | 1.0 | 0.00 | 0.13 | 0.13 | 96 | 1009.8 |
| 20260505113132 | 53 | 12 | 3.0 | 3.0 | 0.00 | 0.13 | 0.13 | 98 | 1009.9 |
| 20260505112628 | 53 | 38 | 2.0 | 2.0 | 0.00 | 0.13 | 0.13 | 98 | 1009.6 |
| 20260505112126 | 53 | 22 | 1.0 | 2.0 | 0.00 | 0.13 | 0.13 | 98 | 1009.6 |
| 20260505111620 | 53 | 36 | 1.0 | 1.0 | 0.00 | 0.13 | 0.13 | 98 | 1009.8 |
| 20260505111116 | 53 | 47 | 0.0 | 0.0 | 0.00 | 0.13 | 0.13 | 99 | 1009.7 |
| 20260505110612 | 54 | 49 | 0.0 | 0.0 | 0.00 | 0.13 | 0.13 | 99 | 1009.6 |
| 20260505110109 | 53 | 50 | 0.0 | 0.0 | 0.00 | 0.13 | 0.13 | 99 | 1009.6 |
| 20260505102045 | 51 | 44 | 0.0 | 0.0 | 0.00 | 0.13 | 0.13 | 98 | 1009.6 |
| 20260505101543 | 51 | 43 | 1.0 | 1.0 | 0.00 | 0.13 | 0.13 | 98 | 1009.7 |
| 20260505101039 | 51 | 41 | 0.0 | 0.0 | 0.00 | 0.13 | 0.13 | 98 | 1009.6 |
| 20260505100536 | 51 | 44 | 0.0 | 0.0 | 0.00 | 0.13 | 0.13 | 98 | 1009.4 |
| 20260505100033 | 52 | 41 | 0.0 | 0.0 | 0.00 | 0.13 | 0.13 | 98 | 1009.3 |
| 20260505095529 | 52 | 55 | 1.0 | 2.0 | 0.00 | 0.13 | 0.13 | 98 | 1009.0 |
| 20260505095026 | 52 | 42 | 0.0 | 0.0 | 0.00 | 0.13 | 0.13 | 98 | 1008.8 |
| 20260505094522 | 52 | 43 | 0.0 | 0.0 | 0.00 | 0.13 | 0.13 | 98 | 1009.1 |
| 20260505094019 | 52 | 42 | 0.0 | 0.0 | 0.00 | 0.13 | 0.13 | 97 | 1009.0 |
| 20260505093515 | 53 | 19 | 1.0 | 1.0 | 0.00 | 0.13 | 0.13 | 97 | 1009.0 |
| 20260505093013 | 53 | 45 | 0.0 | 0.0 | 0.00 | 0.13 | 0.13 | 97 | 1008.8 |
| 20260505092510 | 53 | 44 | 0.0 | 0.0 | 0.00 | 0.13 | 0.13 | 97 | 1008.8 |
| 20260505092008 | 53 | 39 | 0.0 | 0.0 | 0.00 | 0.13 | 0.13 | 97 | 1008.9 |
| 20260505091505 | 53 | 41 | 1.0 | 1.0 | 0.05 | 0.13 | 0.13 | 96 | 1008.9 |
| 20260505091003 | 53 | 17 | 1.0 | 1.0 | 0.12 | 0.13 | 0.13 | 96 | 1009.0 |
| 20260505090501 | 53 | 37 | 2.0 | 2.0 | 0.19 | 0.12 | 0.12 | 96 | 1008.7 |
| 20260505085958 | 53 | 38 | 1.0 | 2.0 | 0.26 | 0.12 | 0.12 | 95 | 1008.9 |
| 20260505085456 | 54 | 337 | 1.0 | 1.0 | 0.12 | 0.09 | 0.09 | 95 | 1008.6 |
| 20260505084954 | 54 | 67 | 1.0 | 2.0 | 0.12 | 0.08 | 0.08 | 94 | 1009.6 |
| 20260505084452 | 54 | 46 | 0.0 | 0.0 | 0.19 | 0.07 | 0.07 | 93 | 1010.0 |
| 20260505083949 | 54 | 35 | 0.0 | 0.0 | 0.24 | 0.06 | 0.06 | 90 | 1010.0 |
| 20260505083447 | 55 | 38 | 0.0 | 0.0 | 0.31 | 0.05 | 0.05 | 87 | 1010.0 |
| 20260505082943 | 56 | 26 | 0.0 | 1.0 | 0.12 | 0.02 | 0.02 | 81 | 1010.1 |
| 20260505082439 | 58 | 16 | 2.0 | 2.0 | 0.00 | 0.00 | 0.00 | 74 | 1009.6 |
| 20260505081936 | 58 | 346 | 1.0 | 1.0 | 0.00 | 0.00 | 0.00 | 69 | 1009.3 |
| 20260505081433 | 59 | 24 | 3.0 | 3.0 | 0.00 | 0.00 | 0.00 | 68 | 1009.5 |
| 20260505080929 | 58 | 23 | 1.0 | 1.0 | 0.00 | 0.00 | 0.00 | 68 | 1009.3 |
| 20260505080425 | 59 | 343 | 0.0 | 1.0 | 0.00 | 0.00 | 0.00 | 68 | 1009.1 |
| 20260505075921 | 59 | 300 | 2.0 | 3.0 | 0.00 | 0.00 | 0.00 | 67 | 1009.1 |
| 20260505075418 | 58 | 258 | 3.0 | 3.0 | 0.00 | 0.00 | 0.00 | 68 | 1009.1 |
| 20260505074915 | 58 | 358 | 1.0 | 2.0 | 0.00 | 0.00 | 0.00 | 67 | 1008.9 |
| 20260505074412 | 59 | 348 | 1.0 | 1.0 | 0.00 | 0.00 | 0.00 | 68 | 1008.6 |
| 20260505073909 | 59 | 356 | 1.0 | 1.0 | 0.00 | 0.00 | 0.00 | 66 | 1008.6 |
| 20260505073407 | 59 | 3 | 2.0 | 2.0 | 0.00 | 0.00 | 0.00 | 67 | 1008.5 |
| 20260505072904 | 58 | 15 | 1.0 | 1.0 | 0.00 | 0.00 | 0.00 | 68 | 1008.6 |
| 20260505072400 | 58 | 22 | 1.0 | 1.0 | 0.00 | 0.00 | 0.00 | 69 | 1008.5 |
| 20260505071856 | 58 | 23 | 1.0 | 1.0 | 0.00 | 0.00 | 0.00 | 69 | 1009.0 |
| 20260505071353 | 57 | 23 | 0.0 | 0.0 | 0.00 | 0.00 | 0.00 | 69 | 1008.8 |
| 20260505070851 | 57 | 23 | 0.0 | 0.0 | 0.00 | 0.00 | 0.00 | 69 | 1008.7 |
| 20260505070347 | 57 | 23 | 0.0 | 0.0 | 0.00 | 0.00 | 0.00 | 69 | 1008.9 |
| 20260505065842 | 55 | 32 | 0.0 | 0.0 | 0.00 | 0.00 | 0.00 | 72 | 1008.9 |
| 20260505065340 | 55 | 32 | 0.0 | 0.0 | 0.00 | 0.00 | 0.00 | 74 | 1008.8 |
| 20260505064836 | 55 | 35 | 0.0 | 0.0 | 0.00 | 0.00 | 0.00 | 74 | 1008.7 |
| 20260505064334 | 55 | 37 | 0.0 | 0.0 | 0.00 | 0.00 | 0.00 | 74 | 1008.9 |
| 20260505063832 | 55 | 37 | 0.0 | 0.0 | 0.00 | 0.00 | 0.00 | 75 | 1009.1 |
| 20260505063327 | 55 | 37 | 0.0 | 0.0 | 0.00 | 0.00 | 0.00 | 74 | 1008.8 |
| 20260505062824 | 55 | 37 | 0.0 | 0.0 | 0.00 | 0.00 | 0.00 | 73 | 1008.7 |
| 20260505062322 | 55 | 38 | 0.0 | 0.0 | 0.00 | 0.00 | 0.00 | 72 | 1008.8 |
| 20260505061818 | 56 | 38 | 0.0 | 0.0 | 0.00 | 0.00 | 0.00 | 72 | 1009.0 |
| 20260505061316 | 56 | 40 | 0.0 | 0.0 | 0.00 | 0.00 | 0.00 | 71 | 1009.1 |
| 20260505060814 | 56 | 40 | 0.0 | 0.0 | 0.00 | 0.00 | 0.00 | 71 | 1009.0 |
| 20260505060310 | 57 | 27 | 0.0 | 0.0 | 0.00 | 0.00 | 0.00 | 70 | 1009.1 |
| 20260505055806 | 57 | 26 | 0.0 | 0.0 | 0.00 | 0.00 | 0.00 | 68 | 1009.1 |
| 20260505055303 | 58 | 27 | 0.0 | 0.0 | 0.00 | 0.00 | 0.00 | 66 | 1009.1 |
| 20260505054800 | 58 | 25 | 0.0 | 0.0 | 0.00 | 0.00 | 0.00 | 66 | 1009.0 |
| 20260505054257 | 57 | 11 | 1.0 | 1.0 | 0.00 | 0.00 | 0.00 | 67 | 1009.0 |
| 20260505053755 | 57 | 27 | 0.0 | 0.0 | 0.00 | 0.00 | 0.00 | 67 | 1009.0 |
| 20260505053252 | 56 | 28 | 0.0 | 0.0 | 0.00 | 0.00 | 0.00 | 68 | 1009.0 |
| 20260505052749 | 56 | 28 | 0.0 | 0.0 | 0.00 | 0.00 | 0.00 | 68 | 1009.3 |
| 20260505052246 | 57 | 28 | 0.0 | 0.0 | 0.00 | 0.00 | 0.00 | 68 | 1009.0 |
| 20260505051743 | 57 | 28 | 0.0 | 0.0 | 0.00 | 0.00 | 0.00 | 67 | 1008.9 |
| 20260505051241 | 57 | 27 | 0.0 | 0.0 | 0.00 | 0.00 | 0.00 | 67 | 1009.3 |
| 20260505050738 | 57 | 31 | 0.0 | 0.0 | 0.00 | 0.00 | 0.00 | 68 | 1009.0 |
| 20260505050237 | 57 | 30 | 0.0 | 0.0 | 0.00 | 0.00 | 0.00 | 67 | 1009.0 |
| 20260505041706 | 60 | 26 | 0.0 | 0.0 | 0.00 | 0.00 | 0.00 | 61 | 1008.7 |
| 20260505041204 | 60 | 17 | 0.0 | 0.0 | 0.00 | 0.00 | 0.00 | 58 | 1008.9 |
| 20260505040701 | 60 | 12 | 1.0 | 1.0 | 0.00 | 0.00 | 0.00 | 61 | 1008.9 |
| 20260505040158 | 59 | 10 | 0.0 | 0.0 | 0.00 | 0.00 | 0.00 | 61 | 1008.6 |
| 20260505035654 | 60 | 43 | 0.0 | 0.0 | 0.00 | 0.00 | 0.00 | 61 | 1008.7 |
| 20260505035151 | 61 | 42 | 0.0 | 0.0 | 0.00 | 0.00 | 0.00 | 58 | 1008.7 |
| 20260505034647 | 61 | 41 | 0.0 | 0.0 | 0.00 | 0.00 | 0.00 | 56 | 1008.6 |
| 20260505034145 | 61 | 317 | 1.0 | 1.0 | 0.00 | 0.00 | 0.00 | 56 | 1008.9 |
| 20260505033641 | 62 | 312 | 1.0 | 2.0 | 0.00 | 0.00 | 0.00 | 56 | 1008.6 |
| 20260505033139 | 62 | 224 | 1.0 | 2.0 | 0.00 | 0.00 | 0.00 | 55 | 1008.5 |
| 20260505032637 | 63 | 186 | 1.0 | 3.0 | 0.00 | 0.00 | 0.00 | 54 | 1008.4 |
| 20260505032133 | 62 | 168 | 2.0 | 3.0 | 0.00 | 0.00 | 0.00 | 54 | 1008.7 |
| 20260505031630 | 63 | 20 | 0.0 | 1.0 | 0.00 | 0.00 | 0.00 | 54 | 1008.9 |
| 20260505031126 | 63 | 49 | 0.0 | 0.0 | 0.00 | 0.00 | 0.00 | 53 | 1008.9 |
| 20260505030624 | 63 | 200 | 1.0 | 2.0 | 0.00 | 0.00 | 0.00 | 53 | 1008.9 |
| 20260505030119 | 64 | 44 | 0.0 | 0.0 | 0.00 | 0.00 | 0.00 | 52 | 1008.9 |
| 20260505025614 | 64 | 282 | 2.0 | 3.0 | 0.00 | 0.00 | 0.00 | 52 | 1009.1 |
| 20260505025108 | 64 | 7 | 0.0 | 1.0 | 0.00 | 0.00 | 0.00 | 52 | 1008.9 |
| 20260505024605 | 64 | 136 | 0.0 | 1.0 | 0.00 | 0.00 | 0.00 | 51 | 1008.8 |
| 20260505024102 | 64 | 302 | 3.0 | 3.0 | 0.00 | 0.00 | 0.00 | 51 | 1009.0 |
| 20260505023559 | 64 | 165 | 5.0 | 6.0 | 0.00 | 0.00 | 0.00 | 51 | 1009.3 |
| 20260505023057 | 64 | 279 | 1.0 | 2.0 | 0.00 | 0.00 | 0.00 | 51 | 1009.1 |
| 20260505022554 | 64 | 15 | 0.0 | 1.0 | 0.00 | 0.00 | 0.00 | 51 | 1009.3 |
| 20260505022051 | 64 | 245 | 3.0 | 6.0 | 0.00 | 0.00 | 0.00 | 51 | 1009.0 |
| 20260505021547 | 64 | 122 | 1.0 | 1.0 | 0.00 | 0.00 | 0.00 | 51 | 1009.0 |
| 20260505021044 | 64 | 92 | 2.0 | 2.0 | 0.00 | 0.00 | 0.00 | 52 | 1009.0 |
| 20260505020544 | 64 | 117 | 1.0 | 1.0 | 0.00 | 0.00 | 0.00 | 52 | 1009.3 |
| 20260505020041 | 64 | 200 | 4.0 | 6.0 | 0.00 | 0.00 | 0.00 | 51 | 1009.3 |
| 20260505015539 | 64 | 285 | 1.0 | 2.0 | 0.00 | 0.00 | 0.00 | 51 | 1009.0 |
| 20260505015035 | 64 | 343 | 0.0 | 1.0 | 0.00 | 0.00 | 0.00 | 52 | 1009.4 |
| 20260505014532 | 64 | 184 | 1.0 | 1.0 | 0.00 | 0.00 | 0.00 | 51 | 1009.1 |
| 20260505014029 | 64 | 45 | 1.0 | 1.0 | 0.00 | 0.00 | 0.00 | 52 | 1009.3 |